Regional Weather Roundup
Issued by NWS Charleston, WV

Home | Current Version | Previous Version | Graphics & Text | Print | Product List | Glossary On
Versions: 1 2 3 4 5 6 7 8 9 10 11 12 13 14 15 16 17 18 19 20 21 22 23 24 25 26 27 28 29 30 31 32 33 34 35 36 37 38 39 40 41 42 43 44 45 46 47 48 49 50
361
ASUS41 KRLX 200710
RWRRLX
West Virginia Regional Weather Roundup
National Weather Service Charleston WV
200 AM EST FRI JAN 20 2017

Note: "fair" indicates few or no clouds below 12,000 feet with no
significant weather and/or obstructions to visibility.

WVZ003-200800-
Northern Panhandle of West Virginia

CITY           SKY/WX    TMP DP  RH WIND       PRES   REMARKS
WHEELING       CLOUDY    35  32  88 E8        29.82F
$$

WVZ009-200800-
Northwest West Virginia

CITY           SKY/WX    TMP DP  RH WIND       PRES   REMARKS
PARKERSBURG    CLOUDY    40  37  89 E5        29.82F
$$

WVZ006-200800-
Western West Virginia

CITY           SKY/WX    TMP DP  RH WIND       PRES   REMARKS
HUNTINGTON     CLOUDY    46  43  89 E6        29.72F
$$

WVZ015-200800-
West Central West Virginia

CITY           SKY/WX    TMP DP  RH WIND       PRES   REMARKS
CHARLESTON     LGT RAIN  45  41  86 CALM      29.77F
$$

WVZ022-031-200800-
North Central West Virginia

CITY           SKY/WX    TMP DP  RH WIND       PRES   REMARKS
CLARKSBURG     CLOUDY    34  33  96 CALM      29.82F
MORGANTOWN     CLOUDY    36  33  89 CALM      29.84F
$$

WVZ025-035-042-045-200800-
Southern West Virginia

CITY           SKY/WX    TMP DP  RH WIND       PRES   REMARKS
BECKLEY        CLOUDY    49  36  61 S10       29.84F
LOGAN          CLOUDY    55  39  54 CALM      29.76F
BLUEFIELD      CLOUDY    49  34  56 CALM      29.85F
LEWISBURG      CLOUDY    39  37  89 N8        29.88F
$$

WVZ047-200800-
Northern Mountains of West Virginia

CITY           SKY/WX    TMP DP  RH WIND       PRES   REMARKS
ELKINS         CLOUDY    37  35  92 CALM      29.87F FOG
$$

WVZ052-200800-
Eastern Panhandle of West Virginia

CITY           SKY/WX    TMP DP  RH WIND       PRES   REMARKS
MARTINSBURG    CLOUDY    35  32  88 CALM      29.96F
PETERSBURG     CLOUDY    35  35  97 CALM      29.95S
$$




USA.gov is the U.S. government's official web portal to all federal, state and local government web resources and services.